Location: Cisewo
(53.3833°N, 14.9000°E)
Time: 06:54:02
(UTC+00:00)

BEESAT 3 - Pass Details

Date: 04 October 2021
Orbit: 481 x 510 km, 64.9° (Epoch: 24 October)

Event Time Altitude Azimuth Distance (km) Brightness Sun altitude
Rises 17:37:43 0° 315° (NW) 2,615 ? -11.0°
Reaches altitude 10° 17:40:10 10° 329° (NNW) 1,732 ? -11.3°
Maximum altitude 17:43:26 25° 26° (NNE) 1,066 ? -11.8°
Enters shadow 17:45:34 16° 71° (ENE) 1,396 ? -12.1°
